Location: Andiroba
(19.8650°S, 43.9258°W)
Time: 01:47:07
(UTC+00:00)

Daily predictions for brighter satellites

Satellite Brightness Start Highest point End
(mag) Time Altitude Azimuth Time Altitude Azimuth Time Altitude Azimuth
ATLAS 5 CENTAUR R/B 4.0 04:55:01 10° WNW 05:45:06 46° E 05:49:13 10° E
CZ-3 R/B 4.3 05:47:32 10° NW 06:22:25 47° NNE 06:31:56 10° E
Cosmos 2369 Rocket 4.3 06:57:44 17° SE 07:00:11 22° ESE 07:04:27 10° ENE
Cosmos 1802 Rocket 4.5 07:05:56 51° N 07:05:56 51° N 07:10:32 10° N
SL-4 R/B 4.2 07:09:29 23° ESE 07:09:29 23° ESE 07:11:24 10° SE
Atlas Centaur 2 2.9 07:09:20 40° ENE 07:09:20 40° ENE 07:12:23 10° ESE
ATLAS 5 CENTAUR R/B 4.5 07:14:23 43° SSW 07:18:22 89° ESE 07:56:13 10° NNE
Chandra Rocket (1) 3.2 07:21:14 45° SSE 07:21:14 45° SSE 07:28:37 10° ESE
FengYun 1-2 T 4.3 07:15:05 10° NNE 07:20:41 75° ESE 07:21:32 63° SSE
Cosmos 1447 Rocket 4.4 07:16:55 10° N 07:23:13 89° W 07:29:30 10° S
ATLAS 3B R/B 2.9 07:24:39 49° NW 07:24:39 49° NW 07:30:03 10° N
H-2A R/B (2) 2.6 07:27:44 37° E 07:27:44 37° E 07:30:20 10° ESE
SL-08 RB Rocket 4.0 07:23:05 10° NNE 07:27:30 66° E 07:27:30 66° E
Cosmos 1076 Rocket 4.5 07:31:42 38° N 07:31:42 38° N 07:34:21 10° N
DMSP B5D2-2 3.9 07:29:38 47° S 07:31:14 89° W 07:36:29 10° NNW
ARIANE 5 R/B 2.5 07:26:54 10° NNE 07:31:56 81° ESE 07:32:45 63° S
USA 229 DEB 3.7 07:33:29 34° S 07:36:04 62° ESE 07:41:52 10° NE
USA 229 3.7 07:33:35 34° S 07:36:11 61° ESE 07:41:58 10° NE
Cosmos 2056 Rocket 3.9 07:34:54 32° S 07:37:18 63° ESE 07:42:37 10° NNE
Cosmos 468 4.4 07:37:22 10° NNW 07:42:40 74° WSW 07:48:00 10° S
SL-08 R/B 4.5 07:41:53 50° SW 07:43:00 57° W 07:49:03 10° N
USA 215 4.4 07:44:16 10° ENE 07:50:08 36° SE 07:55:28 12° SSW
Cosmos 482 Debris 4.2 07:50:46 74° W 07:50:59 77° NW 07:54:33 10° NNE
Cosmos 1725 Rocket 4.5 07:53:30 36° W 07:53:30 36° W 07:58:40 10° NNW
Delta 7925 Rocket 3.9 07:51:46 43° SW 07:53:11 57° SSE 07:59:29 10° E
H-2A R/B 2.7 07:58:27 38° WSW 08:01:02 87° NNW 08:11:15 10° ENE
CZ-2D R/B 3.6 07:58:26 10° NNE 08:01:57 59° ESE 08:04:31 18° S
Cosmos 1420 Rocket 4.2 08:04:03 36° WSW 08:05:37 47° WNW 08:10:36 10° N
Palapa 6 Rocket 4.1 08:06:02 27° WNW 08:07:31 33° NNW 08:11:17 10° NE
Meteor 2-21 Rocket 4.5 08:01:47 10° N 08:07:51 84° E 08:14:04 10° S
Cosmos 2061 Rocket 4.4 08:05:27 25° SW 08:08:30 39° W 08:14:22 10° NNW
Hubble Space Telescope 2.6 08:09:48 17° NW 08:10:31 17° NNW 08:13:12 10° NNE
Cosmos 1812 Rocket 4.0 08:09:34 10° NNW 08:13:41 38° W 08:16:50 16° SSW
Gblst 52 Del rocket 4.4 08:10:30 20° SSW 08:14:28 65° SE 08:19:54 10° NE
ARGOS 4.2 08:11:03 10° NNW 08:15:22 24° W 08:15:49 24° W
BREEZE-M DEB (TANK) 3.9 08:09:17 14° SW 08:17:01 59° SE 08:20:09 10° ENE
Cosmos 1656 Rocket 4.2 08:18:31 24° WSW 08:20:57 36° WNW 08:25:51 10° NNW
Cosmos 2221 2.3 08:21:21 10° N 08:25:32 79° W 08:29:48 10° S
Cosmos 220 Rocket 3.8 08:23:42 10° NNW 08:27:49 71° WSW 08:32:01 10° S
SMAP 3.4 08:29:02 10° NNE 08:33:39 70° ESE 08:38:20 10° S
Cosmos 1607 3.8 08:28:27 10° NNW 08:34:32 69° WSW 08:40:35 10° SSE
Meteor 1-5 Rocket 4.5 08:29:03 10° S 08:34:58 81° E 08:40:56 10° N
ARIANE 5 R/B 4.1 08:29:58 10° WNW 08:36:29 21° NNW 08:39:46 10° NE
Cosmos 1816 Rocket 4.5 08:31:39 10° NNW 08:37:45 64° W 08:43:51 10° S
CORIOLIS 4.2 08:37:14 10° NNE 08:42:35 85° ESE 08:47:59 10° S
Delta 2 Rocket 4.0 08:37:29 12° W 08:43:40 64° SSW 08:49:40 10° ESE
Cosmos 614 Rocket 3.9 08:38:48 10° NNW 08:43:47 62° WSW 08:48:48 10° S
Cosmos 2369 Rocket 3.0 08:39:34 12° SW 08:44:02 31° WNW 08:48:54 10° NNW
SL-4 R/B 3.7 08:44:24 14° WSW 08:46:08 17° SW 08:48:57 10° S
Atlas Centaur 2 2.0 08:51:56 10° W 08:56:23 38° SSW 09:00:07 10° SE
YAOGAN 11 4.5 08:54:27 10° S 08:58:41 43° WSW 09:02:48 10° NNW
Cosmos 1842 Rocket 3.5 08:57:58 10° N 09:02:21 78° W 09:06:50 10° S
COSMO-SKYMED 1 2.6 08:58:16 10° S 09:02:36 66° WSW 09:06:54 10° NNW
Meteor 2-6 Rocket 4.5 08:57:32 10° NNW 09:03:17 54° W 09:09:08 10° S
BREEZE-M TANK 3.9 09:03:34 10° WSW 09:08:49 30° NW 09:12:01 10° N
